| time (UTC) | temp F | wind direction | speed MPH | gust MPH | rain 1hr in | rain 24hr in | rain mn in | humidity % | barometer mb |
| 20260903160010 | 82 | 147 | 4.0 | 10.0 | 0.00 | 0.07 | 0.00 | 78 | 1013.4 |
| 20260903154511 | 81 | 198 | 1.0 | 10.0 | 0.00 | 0.07 | 0.00 | 81 | 1013.2 |
| 20260903153004 | 81 | 87 | 2.0 | 6.0 | 0.00 | 0.07 | 0.00 | 82 | 1013.2 |
| 20260903151503 | 81 | 150 | 2.0 | 10.0 | 0.00 | 0.07 | 0.00 | 83 | 1013.2 |
| 20260903150005 | 81 | 199 | 2.0 | 9.0 | 0.00 | 0.07 | 0.00 | 83 | 1013.3 |
| 20260903144600 | 81 | 151 | 2.0 | 8.0 | 0.00 | 0.07 | 0.00 | 83 | 1013.3 |
| 20260903134540 | 78 | 158 | 0.0 | 9.0 | 0.00 | 0.07 | 0.00 | 87 | 1013.5 |
| 20260903133033 | 78 | 99 | 1.0 | 6.0 | 0.00 | 0.07 | 0.00 | 87 | 1013.4 |
| 20260903131533 | 78 | 84 | 1.0 | 5.0 | 0.00 | 0.07 | 0.00 | 87 | 1013.3 |
| 20260903130031 | 78 | 65 | 0.0 | 4.0 | 0.00 | 0.07 | 0.00 | 87 | 1012.9 |
| 20260903124529 | 78 | 91 | 2.0 | 7.0 | 0.00 | 0.07 | 0.00 | 87 | 1013.0 |
| 20260903123034 | 78 | 101 | 2.0 | 6.0 | 0.00 | 0.07 | 0.00 | 87 | 1012.9 |
| 20260903121528 | 78 | 95 | 1.0 | 5.0 | 0.00 | 0.07 | 0.00 | 87 | 1012.8 |
| 20260903120024 | 78 | 101 | 1.0 | 5.0 | 0.00 | 0.07 | 0.00 | 88 | 1012.7 |
| 20260903114530 | 77 | 146 | 2.0 | 6.0 | 0.00 | 0.07 | 0.00 | 87 | 1012.5 |
| 20260903113023 | 77 | 209 | 0.0 | 3.0 | 0.00 | 0.07 | 0.00 | 87 | 1012.5 |
| 20260903111520 | 77 | 177 | 0.0 | 4.0 | 0.00 | 0.07 | 0.00 | 87 | 1012.4 |
| 20260903110019 | 77 | 105 | 0.0 | 3.0 | 0.00 | 0.07 | 0.00 | 87 | 1012.6 |
| 20260903104520 | 77 | 108 | 0.0 | 4.0 | 0.00 | 0.07 | 0.00 | 87 | 1012.3 |
| 20260903103019 | 77 | 92 | 0.0 | 3.0 | 0.00 | 0.07 | 0.00 | 88 | 1012.2 |
| 20260903101518 | 77 | 198 | 0.0 | 7.0 | 0.00 | 0.07 | 0.00 | 87 | 1012.3 |
| 20260903100118 | 77 | 79 | 0.0 | 5.0 | 0.00 | 0.07 | 0.00 | 87 | 1012.2 |
| 20260903094516 | 77 | 106 | 0.0 | 3.0 | 0.00 | 0.07 | 0.00 | 86 | 1012.4 |
| 20260903093036 | 78 | 133 | 0.0 | 5.0 | 0.00 | 0.07 | 0.00 | 84 | 1012.4 |
| 20260903091512 | 79 | 195 | 1.0 | 6.0 | 0.00 | 0.07 | 0.00 | 81 | 1012.3 |
| 20260903090013 | 79 | 167 | 0.0 | 2.0 | 0.00 | 0.07 | 0.00 | 80 | 1012.2 |
| 20260903084526 | 78 | 218 | 0.0 | 0.0 | 0.00 | 0.07 | 0.00 | 82 | 1011.9 |
| 20260903083011 | 78 | 212 | 0.0 | 3.0 | 0.00 | 0.07 | 0.00 | 83 | 1012.0 |
| 20260903081512 | 78 | 98 | 0.0 | 5.0 | 0.00 | 0.07 | 0.00 | 82 | 1012.1 |
| 20260903080009 | 78 | 256 | 1.0 | 4.0 | 0.00 | 0.07 | 0.00 | 83 | 1012.0 |
| 20260903074510 | 78 | 95 | 0.0 | 3.0 | 0.00 | 0.07 | 0.00 | 84 | 1011.9 |
| 20260903073009 | 78 | 86 | 0.0 | 3.0 | 0.00 | 0.07 | 0.00 | 84 | 1012.0 |
| 20260903071515 | 79 | 103 | 0.0 | 4.0 | 0.00 | 0.07 | 0.00 | 82 | 1011.9 |
| 20260903070005 | 79 | 94 | 0.0 | 2.0 | 0.00 | 0.07 | 0.00 | 81 | 1012.0 |
| 20260903064604 | 79 | 60 | 0.0 | 0.0 | 0.00 | 0.07 | 0.00 | 82 | 1012.0 |
| 20260903063003 | 79 | 60 | 0.0 | 0.0 | 0.00 | 0.07 | 0.00 | 82 | 1012.1 |
| 20260903061502 | 79 | 94 | 0.0 | 4.0 | 0.00 | 0.07 | 0.00 | 81 | 1012.0 |
| 20260903060001 | 79 | 101 | 1.0 | 6.0 | 0.00 | 0.07 | 0.00 | 80 | 1012.2 |
| 20260903054558 | 79 | 61 | 2.0 | 8.0 | 0.00 | 0.07 | 0.00 | 79 | 1012.3 |
| 20260903053055 | 79 | 114 | 2.0 | 9.0 | 0.00 | 0.07 | 0.00 | 78 | 1012.4 |
| 20260903051558 | 80 | 102 | 3.0 | 10.0 | 0.00 | 0.07 | 0.00 | 76 | 1012.5 |
| 20260903050050 | 80 | 60 | 1.0 | 8.0 | 0.00 | 0.07 | 0.00 | 74 | 1012.6 |
| 20260903044552 | 81 | 94 | 2.0 | 10.0 | 0.00 | 0.07 | 0.07 | 73 | 1012.7 |
| 20260903043048 | 81 | 106 | 3.0 | 9.0 | 0.00 | 0.07 | 0.07 | 72 | 1012.6 |
| 20260903041548 | 82 | 101 | 2.0 | 11.0 | 0.00 | 0.07 | 0.07 | 70 | 1012.6 |
| 20260903040047 | 82 | 98 | 2.0 | 7.0 | 0.00 | 0.07 | 0.07 | 69 | 1012.6 |
| 20260903034547 | 83 | 136 | 2.0 | 7.0 | 0.00 | 0.07 | 0.07 | 68 | 1012.5 |
| 20260903033046 | 83 | 95 | 4.0 | 10.0 | 0.00 | 0.07 | 0.07 | 67 | 1012.5 |
| 20260903031546 | 84 | 131 | 3.0 | 8.0 | 0.00 | 0.07 | 0.07 | 66 | 1012.5 |
| 20260903030046 | 84 | 74 | 2.0 | 9.0 | 0.00 | 0.07 | 0.07 | 64 | 1012.5 |
| 20260903024546 | 85 | 131 | 4.0 | 12.0 | 0.00 | 0.07 | 0.07 | 62 | 1012.3 |
| 20260903013058 | 89 | 215 | 3.0 | 8.0 | 0.00 | 0.07 | 0.07 | 55 | 1011.5 |
| 20260903011557 | 90 | 88 | 3.0 | 12.0 | 0.00 | 0.07 | 0.07 | 53 | 1011.3 |
| 20260903010056 | 91 | 120 | 2.0 | 6.0 | 0.00 | 0.07 | 0.07 | 51 | 1011.1 |
| 20260903004556 | 91 | 117 | 1.0 | 8.0 | 0.00 | 0.07 | 0.07 | 51 | 1011.1 |
| 20260903003055 | 91 | 107 | 1.0 | 5.0 | 0.00 | 0.07 | 0.07 | 50 | 1011.0 |
| 20260903001556 | 91 | 131 | 4.0 | 10.0 | 0.00 | 0.07 | 0.07 | 50 | 1010.8 |
| 20260903000054 | 89 | 79 | 2.0 | 5.0 | 0.00 | 0.07 | 0.07 | 57 | 1010.8 |
| 20260902234553 | 86 | 121 | 0.0 | 1.0 | 0.00 | 0.07 | 0.07 | 72 | 1010.7 |
| 20260902223046 | 98 | 101 | 4.0 | 10.0 | 0.00 | 0.00 | 0.00 | 42 | 1010.6 |
| 20260902221545 | 99 | 86 | 4.0 | 9.0 | 0.00 | 0.00 | 0.00 | 39 | 1010.4 |
| 20260902220043 | 99 | 111 | 0.0 | 7.0 | 0.00 | 0.00 | 0.00 | 39 | 1010.5 |
| 20260902214544 | 100 | 62 | 3.0 | 8.0 | 0.00 | 0.00 | 0.00 | 39 | 1010.5 |
| 20260902213041 | 99 | 59 | 0.0 | 10.0 | 0.00 | 0.00 | 0.00 | 40 | 1010.8 |
| 20260902211539 | 100 | 105 | 0.0 | 8.0 | 0.00 | 0.00 | 0.00 | 40 | 1010.9 |
| 20260902210051 | 99 | 38 | 3.0 | 9.0 | 0.00 | 0.00 | 0.00 | 39 | 1011.0 |
| 20260902204537 | 99 | 51 | 1.0 | 11.0 | 0.00 | 0.00 | 0.00 | 40 | 1011.3 |
| 20260902203034 | 100 | 103 | 0.0 | 6.0 | 0.00 | 0.00 | 0.00 | 39 | 1011.6 |
| 20260902201536 | 98 | 77 | 1.0 | 7.0 | 0.00 | 0.00 | 0.00 | 40 | 1011.7 |
| 20260902200034 | 99 | 51 | 1.0 | 9.0 | 0.00 | 0.00 | 0.00 | 40 | 1012.1 |
| 20260902194534 | 98 | 86 | 1.0 | 8.0 | 0.00 | 0.00 | 0.00 | 40 | 1012.3 |
| 20260902183018 | 96 | 71 | 0.0 | 4.0 | 0.00 | 0.00 | 0.00 | 45 | 1013.3 |
| 20260902181510 | 95 | 38 | 0.0 | 5.0 | 0.00 | 0.00 | 0.00 | 48 | 1013.6 |
| 20260902180007 | 94 | 107 | 1.0 | 6.0 | 0.00 | 0.00 | 0.00 | 49 | 1014.0 |
| 20260902174503 | 94 | 122 | 0.0 | 6.0 | 0.00 | 0.00 | 0.00 | 49 | 1014.5 |
| 20260902173059 | 94 | 15 | 0.0 | 4.0 | 0.00 | 0.00 | 0.00 | 51 | 1014.5 |
| 20260902171601 | 92 | 73 | 1.0 | 8.0 | 0.00 | 0.00 | 0.00 | 53 | 1014.7 |
| 20260902170057 | 93 | 60 | 2.0 | 6.0 | 0.00 | 0.00 | 0.00 | 52 | 1015.1 |
| 20260902164557 | 92 | 122 | 0.0 | 6.0 | 0.00 | 0.00 | 0.00 | 54 | 1015.3 |
| 20260902163058 | 91 | 106 | 0.0 | 4.0 | 0.00 | 0.00 | 0.00 | 57 | 1015.4 |
| 20260902161554 | 91 | 89 | 2.0 | 6.0 | 0.00 | 0.00 | 0.00 | 58 | 1015.3 |